Find Starlink 30321

NORAD ID: 57679 Int'l Des: 2023-124 Owner: SPXS Country: US Constellation: starlink operational
LEOCIRCULAR

現在のビュー

3D地球を読み込み中...

About Starlink 30321

Starlink 30321 (NORAD 57679) is a starlink constellation satellite (v2 mini) launched Aug 22, 2023 by SPXS of US. It operates in LEO, CIRCULAR orbit with a mass of 730.00 kg.

Starlink 30321について

説明を読み込み中...

次回通過

Passes for default location (London). Set your location on the main map for personalized predictions.

高度履歴

Loading altitude history...

軌道要素

1 57679U 23124S 26170.92403256 .00000534 00000-0 30167-4 0 9996
2 57679 53.1607 91.7232 0001212 83.3717 276.7421 15.30195166159222
Epoch: Jun 19, 2026 • Age: 16 hours

現在のステータス

高度 475.4 km
速度 7.63 km/s
衛星直下点 20.21°N, 125.96°E
打ち上げ日 Aug 22, 2023
運用期間 2.8 years
タイプ internet

技術仕様

分類 Payload
質量 730.00 kg
乾燥質量 700.00 kg
総質量 730.00 kg
長さ 0.30 m
直径 4.10 m
スパン 29.00 m
形状 Box + pan
製造者 SPXS
バスタイプ Starlink V2M
フェーズステータス In Orbit
所有者/国 SPXS/US

Most Searched